Regional Weather Roundup
Issued by NWS

Home | Current Version | Previous Version | Text Only | Print | Product List | Glossary Off
Versions: 1 2 3 4 5 6 7 8 9 10 11 12 13 14 15 16 17 18 19 20 21 22 23 24 25 26 27 28 29 30 31 32 33 34 35 36 37 38 39 40 41 42 43 44 45 46 47 48 49 50

000
ASUS43 KFSD 040010
RWRSD

WEATHER ROUNDUP FOR SOUTH DAKOTA
NATIONAL WEATHER SERVICE SIOUX FALLS SD
700 PM CDT THU SEP 03 2015

NOTE: "FAIR" INDICATES FEW OR NO CLOUDS BELOW 12,000 FEET WITH NO
SIGNIFICANT WEATHER AND/OR OBSTRUCTIONS TO VISIBILITY.


SDZ001>005-009-010-012>017-040100-
NORTHWEST AND NORTH CENTRAL SOUTH DAKOTA

CITY           SKY/WX    TMP DP  RH WIND       PRES   REMARKS
BUFFALO          N/A     85  49  28 N3        29.68F
MOBRIDGE       CLOUDY    83  61  47 SE6       29.67R
$$

SDZ012>016-024>037-041>051-057-063-072>074-040100-
SOUTHWEST AND SOUTH CENTRAL SOUTH DAKOTA

CITY           SKY/WX    TMP DP  RH WIND       PRES   REMARKS
RAPID CTY ARPT MOSUNNY   87  55  33 NW14      29.73R
PIERRE         PTSUNNY   87  56  34 SE10      29.68R
CUSTER         MOSUNNY   84  37  18 S3        29.93S
ELLSWORTH AFB  MOSUNNY   89  52  28 N13       29.73R
PHILIP         LGT RAIN  88  53  30 SE13G28   29.68R
PINE RIDGE     PTSUNNY   87  48  25 S18G30    29.78R
WINNER         FAIR      87  67  51 SE10      29.71S
$$

SDZ004>011-016>023-039-040-040100-
NORTHEAST SOUTH DAKOTA

CITY           SKY/WX    TMP DP  RH WIND       PRES   REMARKS
ABERDEEN       SUNNY     88  71  57 SE9       29.72R
WATERTOWN      SUNNY     85  72  65 SE10      29.78S
BROOKINGS      CLEAR     82  70  65 SE14      29.80F
SISSETON         N/A     87  74  64 SE14      29.74F HX  95
$$

SDZ017-020-022-023-036>040-048>070-040100-
SOUTHEAST SOUTH DAKOTA

CITY           SKY/WX    TMP DP  RH WIND       PRES   REMARKS
SIOUX FALLS    PTCLDY    83  71  67 S13       29.78S
HURON          SUNNY     87  71  58 SE13      29.71S
CHAMBERLAIN    PTSUNNY   83  72  70 SE9       29.71S
MITCHELL       MOSUNNY   85  72  65 SE10      29.73S
YANKTON        MOSUNNY   84  73  70 SE12      29.74S
$$

ABBREVIATIONS USED IN REMARKS
   TC - TEMPERATURE IN CELSIUS
  WCI - WIND CHILL INDEX
   HX - HEAT INDEX
  VSB - VISIBILITY



USA.gov is the U.S. government's official web portal to all federal, state and local government web resources and services.